[[{"header":{"parameterUnit":"m.s-1","parameterCategory":1,"la1":30.2991,"la2":30.254,"lo1":-89.0895,"lo2":-89.0444,"dy":0.0017,"dx":0.0017,"nx":28,"ny":28,"refTime":"2025-01-16T09:00:00:Z","depth":0,"parameterNumber":2,"parameterNumberName":"U-component_of_WINDS"},"data":[0,0,0,0,0,0,0,0,0,0,0,0,0,0,0,0,0,0,0,0,0,0,0,0,0,0,0,0,0,0,0,0,0,0,0,0,0,0,0,0,0,0,0,0,0,0,0,0,0,0,0,0,0,0,0,0,0,0,-1.2522,-1.2522,0,-1.251,-1.251,-1.251,-1.2508,-1.2508,-1.2509,-1.2509,-1.2495,-1.2494,-1.2494,0,0,0,0,0,0,0,0,0,0,0,0,0,-1.254,-1.254,-1.2522,-1.2522,-1.2522,-1.251,-1.251,-1.251,-1.2508,-1.2508,-1.2509,-1.2509,-1.2495,-1.2494,-1.2494,0,0,0,0,0,0,0,0,0,0,0,0,0,-1.2531,-1.254,-1.2522,-1.252,-1.2519,-1.251,-1.251,-1.251,-1.2508,-1.2508,-1.2509,-1.2509,-1.2495,-1.2494,-1.2494,-1.2486,0,0,-1.2491,-1.2491,0,0,0,0,0,0,0,0,-1.2531,-1.253,-1.252,-1.252,-1.252,-1.2511,-1.2511,-1.2502,-1.2508,-1.2512,-1.2509,-1.2509,-1.25,-1.2499,-1.2496,-1.2485,-1.2485,-1.2491,-1.2491,-1.2491,-1.249,0,0,0,0,0,0,0,-1.2532,-1.2531,-1.2518,-1.252,-1.252,-1.2518,-1.2517,-1.251,-1.2505,-1.2512,-1.2512,-1.2511,-1.25,-1.2497,-1.2496,-1.2484,-1.2491,-1.2491,-1.249,-1.249,-1.2463,-1.2463,0,0,0,0,0,0,-1.2534,-1.2531,-1.2518,-1.2517,-1.2526,-1.2518,-1.2516,-1.2514,-1.2505,-1.2504,-1.2511,-1.2511,-1.2498,-1.2497,-1.2495,-1.2484,-1.2491,-1.249,-1.249,-1.2464,-1.2463,-1.2463,0,0,0,0,0,0,-1.2534,-1.2532,-1.2518,-1.2524,-1.2522,-1.2517,-1.2514,-1.2513,-1.251,-1.2504,-1.2503,-1.2509,-1.2498,-1.2496,-1.2488,-1.2483,-1.249,-1.2489,-1.2464,-1.2463,-1.2463,-1.2462,0,0,0,0,0,0,-1.2535,-1.2533,-1.2531,-1.2524,-1.2522,-1.2512,-1.2514,-1.2513,-1.2509,-1.2509,-1.2502,-1.2501,-1.2498,-1.2489,-1.2487,-1.2482,-1.2488,-1.2464,-1.2464,-1.2463,-1.2462,-1.2462,-1.2461,0,0,0,0,0,-1.2535,-1.2531,-1.253,-1.2529,-1.2519,-1.2512,-1.2511,-1.2508,-1.2509,-1.2506,-1.2502,-1.2501,-1.2484,-1.2488,-1.2486,-1.2481,-1.2464,-1.2464,-1.2463,-1.2463,-1.2462,-1.2461,0,0,0,0,0,0,-1.2537,-1.253,-1.253,-1.2523,-1.2518,-1.2512,-1.2508,-1.2507,-1.2501,-1.2501,-1.2497,-1.2496,-1.2487,-1.2483,-1.2487,-1.2472,-1.2474,-1.2473,-1.2474,-1.2474,-1.2473,-1.2474,-1.2488,0,0,0,0,0,-1.2537,-1.2532,-1.2526,-1.2521,-1.2518,-1.2513,-1.251,-1.2508,-1.2502,-1.25,-1.2495,-1.2489,-1.2482,-1.2478,-1.2471,-1.2462,-1.2459,-1.2457,-1.2456,-1.2456,-1.2455,-1.2447,-1.2446,-1.2461,-1.2461,-1.2461,0,0,-1.2536,-1.2532,-1.2529,-1.2521,-1.2517,-1.2511,-1.2512,-1.2506,-1.2501,-1.2499,-1.2491,-1.2486,-1.2479,-1.2469,-1.2465,-1.2466,-1.245,-1.2455,-1.2455,-1.2454,-1.2446,-1.2445,-1.2444,-1.246,-1.246,-1.2461,0,0,-1.2531,-1.2528,-1.2523,-1.2518,-1.2512,-1.2508,-1.2507,-1.25,-1.2497,-1.2488,-1.2486,-1.2479,-1.2468,-1.2462,-1.2458,-1.2448,-1.2447,-1.2446,-1.2442,-1.2435,-1.2433,-1.2432,-1.2427,-1.2426,-1.2445,-1.2445,-1.2445,0,-1.2531,-1.2523,-1.252,-1.2514,-1.2509,-1.2507,-1.25,-1.2496,-1.2487,-1.2484,-1.2485,-1.2469,-1.2464,-1.2452,-1.245,-1.2447,-1.2443,-1.2447,-1.2434,-1.2433,-1.2432,-1.2427,-1.2425,-1.2445,-1.2445,-1.2445,-1.2445,0,-1.2522,-1.2516,-1.2512,-1.2504,-1.2499,-1.2493,-1.2487,-1.2482,-1.248,-1.2476,-1.2466,-1.2459,-1.245,-1.2447,-1.2445,-1.2434,-1.2435,-1.2435,-1.2438,-1.243,-1.2425,-1.2424,-1.2445,-1.2445,-1.2445,-1.2445,0,0,-1.252,-1.2508,-1.2507,-1.2502,-1.2494,-1.2488,-1.2481,-1.2472,-1.2467,-1.246,-1.2453,-1.2442,-1.2442,-1.2436,-1.2433,-1.2427,-1.2417,-1.2428,-1.2428,-1.2425,-1.2402,-1.2401,-1.24,-1.2416,-1.2416,-1.2416,-1.2402,0,-1.2514,-1.2501,-1.2497,-1.2486,-1.2479,-1.2475,-1.2468,-1.2461,-1.2457,-1.2449,-1.2444,-1.2435,-1.2436,-1.2433,-1.2426,-1.242,-1.2413,-1.2421,-1.2408,-1.2407,-1.2409,-1.2397,-1.2397,-1.2385,-1.2401,-1.24,-1.24,0,-1.2505,-1.2498,-1.2486,-1.2476,-1.2473,-1.2467,-1.2458,-1.2451,-1.2442,-1.2439,-1.2432,-1.2429,-1.2419,-1.2422,-1.2406,-1.2412,-1.2406,-1.2402,-1.2401,-1.24,-1.2403,-1.2394,-1.2381,-1.2379,-1.2398,-1.2398,-1.2398,0,-1.2503,-1.2491,-1.2481,-1.2477,-1.2466,-1.2462,-1.2456,-1.2448,-1.2442,-1.2433,-1.2429,-1.2419,-1.2413,-1.2404,-1.2398,-1.2401,-1.2383,-1.2385,-1.2378,-1.2378,-1.2375,-1.2375,-1.236,-1.2372,-1.2372,-1.2372,-1.2372,0,-1.2496,-1.2489,-1.248,-1.2474,-1.2465,-1.2459,-1.245,-1.2444,-1.2436,-1.2428,-1.2424,-1.2416,-1.2408,-1.2399,-1.2393,-1.2381,-1.2378,-1.2374,-1.2373,-1.2374,-1.2375,-1.237,-1.237,-1.2372,-1.2372,-1.2372,-1.2372,0,-1.2493,-1.2487,-1.2476,-1.2466,-1.2463,-1.2456,-1.2447,-1.244,-1.2434,-1.2424,-1.2421,-1.2411,-1.24,-1.2392,-1.2378,-1.2374,-1.2359,-1.2358,-1.2362,-1.2362,-1.2354,-1.2355,-1.2335,-1.2331,-1.2347,-1.2347,-1.2347,0,-1.2489,-1.2483,-1.2472,-1.2466,-1.2461,-1.2452,-1.2446,-1.2439,-1.2432,-1.242,-1.2414,-1.2402,-1.2393,-1.2374,-1.2365,-1.2353,-1.2351,-1.2345,-1.2349,-1.235,-1.2349,-1.2349,-1.2348,-1.2344,-1.2344,-1.2344,-1.2344,0,-1.2482,-1.2479,-1.247,-1.246,-1.2453,-1.2444,-1.2435,-1.2431,-1.2422,-1.2414,-1.2402,-1.2395,-1.2379,-1.2366,-1.2353,-1.2346,-1.2342,-1.2342,-1.234,-1.2341,-1.2343,-1.234,-1.2359,-1.2343,-1.2343,-1.2343,-1.2343,-1.2343,-1.2478,-1.2471,-1.2462,-1.2452,-1.2444,-1.2435,-1.2428,-1.2421,-1.2411,-1.2398,-1.2394,-1.2381,-1.2369,-1.2351,-1.2343,-1.2332,-1.2333,-1.2329,-1.2328,-1.2327,-1.2326,-1.2345,-1.233,-1.233,-1.233,-1.233,-1.233,0,-1.2469,-1.2463,-1.2453,-1.2441,-1.2432,-1.243,-1.242,-1.2412,-1.2401,-1.2391,-1.2381,-1.2365,-1.2353,-1.2342,-1.2328,-1.2321,-1.2318,-1.2317,-1.2317,-1.2315,-1.2328,-1.2331,-1.2319,-1.2319,-1.2319,-1.2319,-1.2319,-1.2319,-1.2464,-1.2453,-1.2448,-1.2432,-1.2425,-1.2412,-1.2406,-1.2397,-1.2389,-1.2372,-1.2361,-1.2354,-1.2343,-1.2328,-1.2315,-1.2312,-1.2307,-1.2305,-1.2302,-1.2313,-1.2315,-1.2316,-1.2319,-1.2304,-1.2304,-1.229,-1.229,-1.229]},{"header":{"parameterUnit":"m.s-1","parameterCategory":1,"la1":30.2991,"la2":30.254,"lo1":-89.0895,"lo2":-89.0444,"dy":0.0017,"dx":0.0017,"nx":28,"ny":28,"refTime":"2025-01-16T09:00:00:Z","depth":0,"parameterNumber":3,"parameterNumberName":"V-component_of_WINDS"},"data":[0,0,0,0,0,0,0,0,0,0,0,0,0,0,0,0,0,0,0,0,0,0,0,0,0,0,0,0,0,0,0,0,0,0,0,0,0,0,0,0,0,0,0,0,0,0,0,0,0,0,0,0,0,0,0,0,0,0,6.4373,6.4374,0,6.4404,6.4404,6.4405,6.4343,6.4341,6.4339,6.4337,6.4363,6.4366,6.4368,0,0,0,0,0,0,0,0,0,0,0,0,0,6.4258,6.426,6.4373,6.4374,6.4374,6.4404,6.4404,6.4405,6.4343,6.4341,6.4338,6.4336,6.4362,6.4365,6.4369,0,0,0,0,0,0,0,0,0,0,0,0,0,6.43,6.4261,6.4373,6.4347,6.4345,6.4404,6.4404,6.4405,6.4343,6.434,6.4337,6.4335,6.4361,6.4365,6.4369,6.4453,0,0,6.4381,6.4382,0,0,0,0,0,0,0,0,6.4298,6.4304,6.4351,6.4349,6.4347,6.4366,6.4373,6.4421,6.4344,6.4344,6.4337,6.4333,6.4366,6.437,6.4382,6.4454,6.4455,6.4381,6.4383,6.4385,6.4386,0,0,0,0,0,0,0,6.4295,6.4303,6.4385,6.4351,6.4349,6.4333,6.4335,6.4382,6.4372,6.4344,6.4339,6.4344,6.4365,6.4378,6.4382,6.4456,6.4381,6.4384,6.4387,6.4388,6.4601,6.4604,0,0,0,0,0,0,6.4296,6.4301,6.4384,6.4386,6.4315,6.4337,6.434,6.4363,6.4371,6.4369,6.4347,6.4341,6.4373,6.4378,6.4383,6.4484,6.4385,6.4389,6.4391,6.4598,6.4602,6.4605,0,0,0,0,0,0,6.4294,6.4304,6.4383,6.4342,6.4351,6.4342,6.4369,6.4365,6.4379,6.4373,6.4371,6.4363,6.4371,6.4377,6.4437,6.4484,6.439,6.4394,6.4594,6.4599,6.4603,6.4685,0,0,0,0,0,0,6.4291,6.4304,6.4336,6.4344,6.4354,6.4438,6.4372,6.4368,6.4386,6.4379,6.4388,6.4386,6.4369,6.4431,6.4441,6.4487,6.4397,6.4589,6.4596,6.4602,6.4679,6.4693,6.4705,0,0,0,0,0,6.4287,6.4357,6.4338,6.4349,6.4395,6.4441,6.4446,6.4427,6.439,6.4423,6.4419,6.4386,6.4477,6.4438,6.4448,6.4496,6.4586,6.4594,6.4601,6.4673,6.469,6.4704,0,0,0,0,0,0,6.4353,6.4357,6.4337,6.4411,6.4427,6.443,6.4471,6.4446,6.447,6.4462,6.4436,6.4438,6.4503,6.4505,6.4462,6.4579,6.4525,6.4535,6.4576,6.4592,6.4605,6.4604,6.44,0,0,0,0,0,6.4376,6.4415,6.4416,6.4482,6.4491,6.448,6.4499,6.4483,6.4497,6.4503,6.4503,6.4517,6.4549,6.457,6.4599,6.4678,6.4679,6.4716,6.4729,6.474,6.4749,6.4793,6.481,6.463,6.463,6.463,0,0,6.4425,6.4432,6.4458,6.4495,6.4505,6.4545,6.4485,6.4529,6.4559,6.4508,6.4566,6.4567,6.4581,6.4651,6.4682,6.4655,6.4799,6.4749,6.4758,6.4762,6.4803,6.482,6.4835,6.4635,6.4634,6.4633,0,0,6.4534,6.4543,6.46,6.4612,6.4629,6.4621,6.4635,6.4643,6.4643,6.47,6.4664,6.4697,6.4752,6.4764,6.4778,6.4893,6.4864,6.4903,6.4972,6.5015,6.5029,6.5042,6.5085,6.5101,6.4912,6.4912,6.4912,0,6.4592,6.4653,6.4632,6.468,6.4698,6.4656,6.4714,6.4725,6.475,6.4763,6.4732,6.4802,6.4808,6.4881,6.491,6.4921,6.4937,6.4903,6.5029,6.5041,6.5053,6.5094,6.511,6.4917,6.4916,6.4916,6.4915,0,6.4724,6.4767,6.481,6.4838,6.4861,6.4913,6.49,6.4924,6.4907,6.4902,6.4962,6.4967,6.4998,6.5014,6.4995,6.5085,6.5068,6.5034,6.4979,6.5075,6.5114,6.5129,6.4924,6.4922,6.4921,6.492,0,0,6.4876,6.4894,6.491,6.4923,6.4939,6.4971,6.5021,6.5053,6.5076,6.5094,6.5136,6.5184,6.5153,6.5168,6.5151,6.5188,6.5282,6.5149,6.5149,6.5176,6.5384,6.5412,6.543,6.5262,6.5265,6.5267,6.5384,0,6.4987,6.5076,6.506,6.5146,6.5186,6.5148,6.5191,6.5206,6.5203,6.5235,6.5231,6.5267,6.5222,6.5231,6.5266,6.5264,6.5324,6.5254,6.5301,6.5303,6.5302,6.545,6.5478,6.5588,6.5398,6.54,6.5402,0,6.5128,6.5155,6.5247,6.5258,6.5274,6.5314,6.5343,6.5374,6.5389,6.5385,6.5403,6.5379,6.5428,6.5372,6.5441,6.5394,6.5412,6.5413,6.5417,6.5422,6.536,6.5461,6.5622,6.5639,6.5425,6.5423,6.5422,0,6.5233,6.5291,6.5354,6.5366,6.5381,6.541,6.5417,6.543,6.545,6.5474,6.5488,6.5517,6.5533,6.5555,6.554,6.55,6.5611,6.5553,6.5609,6.561,6.5636,6.5635,6.5805,6.5644,6.5644,6.5644,6.5643,0,6.5359,6.5417,6.5402,6.5441,6.5505,6.5485,6.5548,6.555,6.5562,6.56,6.5566,6.5603,6.5579,6.5613,6.56,6.566,6.5667,6.5665,6.5661,6.5669,6.567,6.5682,6.5675,6.5648,6.5647,6.5646,6.5645,0,6.5488,6.548,6.5547,6.5556,6.5559,6.5607,6.5614,6.565,6.5645,6.5694,6.5704,6.5696,6.5734,6.5721,6.5761,6.5752,6.5829,6.5814,6.5826,6.5823,6.588,6.5876,6.6065,6.609,6.5912,6.5913,6.5915,0,6.557,6.5615,6.563,6.5654,6.5665,6.5704,6.5726,6.5707,6.5731,6.5752,6.5786,6.5822,6.585,6.5913,6.5911,6.5942,6.5929,6.5993,6.5933,6.594,6.5932,6.5931,6.5936,6.6005,6.6007,6.6009,6.601,0,6.5718,6.5713,6.5747,6.578,6.5808,6.5832,6.5854,6.5875,6.5857,6.5886,6.5926,6.5948,6.5991,6.6028,6.6056,6.6061,6.6034,6.6029,6.6044,6.6054,6.606,6.606,6.5861,6.6025,6.6024,6.6023,6.6022,6.6021,6.5828,6.5866,6.5884,6.5923,6.5938,6.5959,6.5995,6.5995,6.6029,6.6064,6.605,6.6097,6.6112,6.6147,6.6157,6.6193,6.6168,6.6189,6.6195,6.6201,6.621,6.6052,6.6197,6.6197,6.6197,6.6196,6.6196,0,6.5976,6.5986,6.6022,6.6055,6.6086,6.6059,6.6081,6.6109,6.6151,6.6168,6.6197,6.6244,6.628,6.628,6.6313,6.6342,6.633,6.6352,6.635,6.6353,6.6229,6.6214,6.6361,6.6361,6.6361,6.6361,6.6361,6.6361,6.6057,6.6122,6.6119,6.6191,6.6199,6.6247,6.6263,6.6282,6.6296,6.6351,6.6381,6.6382,6.6392,6.6426,6.6457,6.6456,6.6471,6.6498,6.6493,6.6377,6.6361,6.6345,6.6331,6.6501,6.6501,6.6613,6.6614,6.6615]}]]